| time (UTC) | temp C | wind direction | speed KPH | gust KPH | rain 1hr cm | rain 24hr cm | rain mn cm | humidity % | barometer mb |
| 20260504090104 | 15 | 269 | 6.4 | 17.7 | 0.00 | 0.00 | 0.00 | 37 | 994.4 |
| 20260504081605 | 15 | 181 | 4.8 | 16.1 | 0.00 | 0.00 | 0.00 | 36 | 995.3 |
| 20260504050136 | 14 | 111 | 3.2 | 8.0 | 0.00 | 0.00 | 0.00 | 40 | 999.4 |
| 20260504044559 | 14 | 178 | 1.6 | 9.7 | 0.00 | 0.00 | 0.00 | 41 | 999.7 |
| 20260504043101 | 14 | 181 | 1.6 | 6.4 | 0.00 | 0.00 | 0.00 | 41 | 1000.1 |
| 20260504041601 | 14 | 192 | 1.6 | 6.4 | 0.00 | 0.00 | 0.00 | 41 | 1000.4 |
| 20260504040105 | 14 | 173 | 1.6 | 6.4 | 0.00 | 0.00 | 0.00 | 41 | 1000.8 |
| 20260504034558 | 14 | 153 | 1.6 | 4.8 | 0.00 | 0.00 | 0.00 | 41 | 1001.2 |
| 20260504033058 | 14 | 168 | 1.6 | 3.2 | 0.00 | 0.00 | 0.00 | 41 | 1001.6 |
| 20260504031624 | 14 | 169 | 0.0 | 4.8 | 0.00 | 0.00 | 0.00 | 41 | 1002.0 |
| 20260504030058 | 15 | 155 | 0.0 | 3.2 | 0.00 | 0.00 | 0.00 | 41 | 1002.3 |
| 20260504024559 | 15 | 160 | 1.6 | 6.4 | 0.00 | 0.00 | 0.00 | 40 | 1002.6 |
| 20260504023100 | 15 | 186 | 0.0 | 3.2 | 0.00 | 0.00 | 0.00 | 38 | 1002.8 |
| 20260504021610 | 16 | 0 | 0.0 | 0.0 | 0.00 | 0.00 | 0.00 | 37 | 1002.9 |
| 20260504020106 | 17 | 0 | 0.0 | 0.0 | 0.00 | 0.00 | 0.00 | 34 | 1003.0 |
| 20260504014600 | 17 | 0 | 0.0 | 1.6 | 0.00 | 0.00 | 0.00 | 32 | 1003.2 |
| 20260504013113 | 18 | 0 | 0.0 | 6.4 | 0.00 | 0.00 | 0.00 | 31 | 1003.3 |
| 20260504011600 | 18 | 250 | 3.2 | 12.9 | 0.00 | 0.00 | 0.00 | 29 | 1003.4 |
| 20260504010120 | 18 | 270 | 6.4 | 19.3 | 0.00 | 0.00 | 0.00 | 29 | 1003.5 |
| 20260504004600 | 19 | 244 | 8.0 | 16.1 | 0.00 | 0.00 | 0.00 | 28 | 1003.5 |
| 20260504003057 | 20 | 269 | 4.8 | 16.1 | 0.00 | 0.00 | 0.00 | 26 | 1003.6 |
| 20260504001611 | 20 | 0 | 3.2 | 17.7 | 0.00 | 0.00 | 0.00 | 27 | 1003.9 |
| 20260504000111 | 20 | 252 | 3.2 | 12.9 | 0.00 | 0.00 | 0.00 | 27 | 1003.9 |
| 20260503234558 | 20 | 331 | 6.4 | 16.1 | 0.00 | 0.00 | 0.00 | 27 | 1004.1 |
| 20260503233058 | 20 | 257 | 6.4 | 16.1 | 0.00 | 0.00 | 0.00 | 25 | 1004.2 |
| 20260503231600 | 20 | 250 | 6.4 | 14.5 | 0.00 | 0.00 | 0.00 | 25 | 1004.3 |
| 20260503230059 | 21 | 250 | 4.8 | 16.1 | 0.00 | 0.00 | 0.00 | 26 | 1004.3 |
| 20260503224558 | 21 | 278 | 8.0 | 17.7 | 0.00 | 0.00 | 0.00 | 25 | 1004.5 |
| 20260503223057 | 21 | 325 | 6.4 | 20.9 | 0.00 | 0.00 | 0.00 | 24 | 1004.5 |
| 20260503221600 | 21 | 256 | 8.0 | 17.7 | 0.00 | 0.00 | 0.00 | 23 | 1004.6 |
| 20260503220105 | 21 | 198 | 4.8 | 20.9 | 0.00 | 0.00 | 0.00 | 27 | 1004.9 |
| 20260503214559 | 21 | 272 | 8.0 | 22.5 | 0.00 | 0.00 | 0.00 | 26 | 1005.1 |
| 20260503213133 | 21 | 340 | 8.0 | 16.1 | 0.00 | 0.00 | 0.00 | 27 | 1005.1 |
| 20260503211621 | 21 | 295 | 8.0 | 17.7 | 0.00 | 0.00 | 0.00 | 26 | 1005.3 |
| 20260503204619 | 21 | 272 | 6.4 | 24.1 | 0.00 | 0.00 | 0.00 | 26 | 1005.7 |
| 20260503203115 | 21 | 301 | 8.0 | 20.9 | 0.00 | 0.00 | 0.00 | 25 | 1005.9 |
| 20260503201559 | 22 | 148 | 3.2 | 14.5 | 0.00 | 0.00 | 0.00 | 25 | 1006.2 |
| 20260503194601 | 21 | 306 | 6.4 | 25.7 | 0.00 | 0.00 | 0.00 | 26 | 1006.5 |
| 20260503193059 | 21 | 360 | 8.0 | 14.5 | 0.00 | 0.00 | 0.00 | 27 | 1006.6 |
| 20260503191605 | 20 | 238 | 4.8 | 16.1 | 0.00 | 0.00 | 0.00 | 28 | 1006.8 |
| 20260503190057 | 20 | 18 | 4.8 | 22.5 | 0.00 | 0.00 | 0.00 | 25 | 1007.2 |
| 20260503184634 | 20 | 278 | 4.8 | 14.5 | 0.00 | 0.00 | 0.00 | 25 | 1007.2 |
| 20260503183105 | 20 | 292 | 4.8 | 19.3 | 0.00 | 0.00 | 0.00 | 26 | 1007.4 |
| 20260503181557 | 20 | 317 | 6.4 | 20.9 | 0.00 | 0.00 | 0.00 | 26 | 1007.5 |
| 20260503180058 | 20 | 340 | 6.4 | 20.9 | 0.00 | 0.00 | 0.00 | 26 | 1007.7 |
| 20260503174616 | 19 | 19 | 4.8 | 19.3 | 0.00 | 0.00 | 0.00 | 27 | 1007.8 |
| 20260503173130 | 19 | 340 | 8.0 | 25.7 | 0.00 | 0.00 | 0.00 | 28 | 1007.8 |
| 20260503171559 | 19 | 5 | 9.7 | 16.1 | 0.00 | 0.00 | 0.00 | 29 | 1008.1 |
| 20260503100107 | 10 | 0 | 0.0 | 4.8 | 0.00 | 0.00 | 0.00 | 60 | 1004.9 |